Location: Alafon
(8.4500°N, 4.2333°E)
Time: 00:56:50
(UTC+00:00)

Cosmos 1553 Rocket - Pass Details

Date: 05 July 2020
Orbit: 941 x 1008 km, 82.9° (Epoch: 06 August)

Event Time Altitude Azimuth Distance (km) Brightness Sun altitude
Rises 18:52:48 0° 353° (N) 3,595 7.4 -11.5°
Reaches altitude 10° 18:55:16 10° 352° (N) 2,655 6.8 -12.0°
Maximum altitude 19:01:19 76° 268° (W) 978 4.1 -13.4°
Drops below altitude 10° 19:07:27 10° 182° (S) 2,693 6.1 -14.7°
Sets 19:09:59 0° 180° (S) 3,650 6.7 -15.3°
